Tracking 35030 objects as of 11-Aug-2026
HD Live streaming from Space Station
objects crossing your sky now

CZ-2D DEB


CZ-2D DEB is no longer on orbit


NORAD ID: 43507
Int'l Code: 2018-025E
Launch date: March 17, 2018
Source: People's Republic of China (PRC)
Launch site: Jiuquan Satellite Launch Center, China (JSC)
Decay date: 2022-04-13

Note: This is SATELLITE DEBRIS
Your satellite tracking list
Your tracking list is empty




NASA's NSSDC Master Catalog

Two Line Element Set (TLE):
1 43507U 18025E   22102.88645276  .07019335  24526-5  15480-2 0  9990
2 43507  97.3309 248.2532 0015361 293.4102  66.5577 16.30094941227087
Source of the keplerian elements: AFSPC